Westminster, MD

4:00 PM EST on November 22, 2019 (GMT -0500)
Carroll County Regional-Poage

Weather History for KDMW - September, 2019

Change the Weather History Date:

Saturday, September 14, 2019

  Actual Average (WUND) Record (WUND)
Temperature  
Mean Temperature 72 °F -  
Max Temperature 80 °F - - (-1)
Min Temperature 64 °F - - (-1)
Cooling Degree Days 7    
Growing Degree Days 22 (Base 50)    
Moisture  
Dew Point 65 °F    
Average Humidity 81    
Maximum Humidity 88    
Minimum Humidity 65    
Precipitation  
Precipitation 0.02 in - - ()
Sea Level Pressure  
Sea Level Pressure 30.26 in    
Wind  
Wind Speed 6 mph (SSE)    
Max Wind Speed 10 mph    
Max Gust Speed 16 mph    
Visibility 10 miles    
Events Rain , Thunderstorm    
Averages and records for this station are not official NWS values.
T = Trace of Precipitation, MM = Missing Value Source: NWS Daily Summary

Daily Weather History Graph

Daily Weather History Graph

Search for Another Location

Airport or City:

Astronomy

Sep. 14, 2019 Rise Set
Actual Time 6:47 AM EDT 7:18 PM EDT
Civil Twilight 6:20 AM EDT 7:45 PM EDT
Nautical Twilight 5:49 AM EDT 8:17 PM EDT
Astronomical Twilight 5:16 AM EDT 8:49 PM EDT
Moon 7:58 PM EDT (9/14) 6:59 AM EDT (9/14)
Length of Visible Light 13h 24m
Length of Day
12h 30m
Full, 100% of the Moon is Illuminated
Sep 14
Full
Sep 21
Last Quarter
Sep 28
New
Oct 5
First Quarter
Oct 13
Full

Hourly Weather History & Observations

Time (EDT) Temp. Heat Index Dew Point Humidity Pressure Visibility Wind Dir Wind Speed Gust Speed Precip Events Conditions
12:00 AM 66.2 °F - 60.8 °F 83% 30.36 in 10.0 mi SE 4.6 mph - N/A   Overcast
12:20 AM 66.2 °F - 60.8 °F 83% 30.36 in 10.0 mi SE 6.9 mph - N/A   Overcast
12:40 AM 66.2 °F - 60.8 °F 83% 30.36 in 10.0 mi SE 5.8 mph - N/A   Overcast
1:00 AM 66.2 °F - 60.8 °F 83% 30.36 in 10.0 mi SE 5.8 mph - N/A   Overcast
1:20 AM 66.2 °F - 60.8 °F 83% 30.35 in 10.0 mi SE 5.8 mph - N/A   Overcast
1:40 AM 66.2 °F - 60.8 °F 83% 30.35 in 10.0 mi SE 4.6 mph - N/A   Overcast
2:00 AM 66.2 °F - 60.8 °F 83% 30.33 in 10.0 mi SE 6.9 mph - N/A   Overcast
2:20 AM 66.2 °F - 60.8 °F 83% 30.33 in 10.0 mi SE 4.6 mph - N/A   Overcast
2:40 AM 66.2 °F - 60.8 °F 83% 30.32 in 10.0 mi SE 5.8 mph - N/A   Overcast
3:00 AM 66.2 °F - 60.8 °F 83% 30.31 in 10.0 mi SE 5.8 mph - N/A   Overcast
3:20 AM 64.4 °F - 60.8 °F 88% 30.31 in 10.0 mi SE 5.8 mph - N/A   Overcast
3:40 AM 64.4 °F - 60.8 °F 88% 30.32 in 10.0 mi SE 5.8 mph - N/A   Overcast
4:00 AM 64.4 °F - 60.8 °F 88% 30.31 in 10.0 mi SE 6.9 mph - N/A   Overcast
4:20 AM 64.4 °F - 60.8 °F 88% 30.31 in 10.0 mi SE 6.9 mph - N/A   Overcast
4:40 AM 64.4 °F - 60.8 °F 88% 30.30 in 10.0 mi SE 6.9 mph - N/A   Overcast
5:00 AM 64.4 °F - 60.8 °F 88% 30.29 in 10.0 mi SE 10.4 mph - N/A   Overcast
5:20 AM 64.4 °F - 60.8 °F 88% 30.29 in 10.0 mi SE 9.2 mph - N/A   Overcast
5:40 AM 64.4 °F - 60.8 °F 88% 30.29 in 10.0 mi SSE 8.1 mph - N/A   Overcast
6:00 AM 64.4 °F - 60.8 °F 88% 30.30 in 10.0 mi SE 9.2 mph - N/A   Overcast
6:20 AM 64.4 °F - 60.8 °F 88% 30.30 in 10.0 mi SE 9.2 mph - N/A   Overcast
6:40 AM 64.4 °F - 60.8 °F 88% 30.30 in 10.0 mi SE 8.1 mph - N/A   Overcast
7:00 AM 64.4 °F - 60.8 °F 88% 30.30 in 10.0 mi SE 9.2 mph - N/A   Overcast
7:20 AM 64.4 °F - 60.8 °F 88% 30.30 in 10.0 mi SE 5.8 mph - N/A   Overcast
7:40 AM 64.4 °F - 60.8 °F 88% 30.30 in 10.0 mi SE 6.9 mph - N/A   Overcast
8:00 AM 66.2 °F - 60.8 °F 83% 30.30 in 10.0 mi SE 5.8 mph - N/A   Overcast
8:20 AM 66.2 °F - 62.6 °F 88% 30.30 in 10.0 mi SSE 8.1 mph - N/A   Overcast
8:40 AM 66.2 °F - 62.6 °F 88% 30.30 in 10.0 mi SSE 6.9 mph - N/A   Overcast
9:20 AM 68.0 °F - 62.6 °F 83% 30.30 in 10.0 mi SSE 6.9 mph - N/A   Overcast
9:40 AM 69.8 °F - 62.6 °F 78% 30.31 in 10.0 mi SSE 6.9 mph - N/A   Overcast
10:00 AM 69.8 °F - 64.4 °F 83% 30.31 in 10.0 mi South 8.1 mph - N/A Rain Rain
10:20 AM 68.0 °F - 64.4 °F 88% 30.31 in 7.0 mi SSE 8.1 mph - 0.01 in Rain , Thunderstorm Light Thunderstorms and Rain
10:40 AM 68.0 °F - 64.4 °F 88% 30.30 in 10.0 mi SSE 5.8 mph - 0.01 in Rain Light Rain
11:00 AM 69.8 °F - 64.4 °F 83% 30.29 in 10.0 mi SSE 6.9 mph - N/A   Overcast
11:20 AM 69.8 °F - 64.4 °F 83% 30.28 in 10.0 mi South 9.2 mph - N/A   Overcast
11:40 AM 71.6 °F - 66.2 °F 83% 30.28 in 10.0 mi South 8.1 mph - N/A Rain Light Rain
12:00 PM 73.4 °F - 66.2 °F 78% 30.27 in 10.0 mi South 9.2 mph - N/A   Overcast
12:20 PM 73.4 °F - 66.2 °F 78% 30.27 in 10.0 mi South 8.1 mph - N/A   Overcast
12:40 PM 75.2 °F - 66.2 °F 73% 30.26 in 10.0 mi South 8.1 mph - N/A   Overcast
1:00 PM 75.2 °F - 66.2 °F 73% 30.26 in 10.0 mi South 10.4 mph 16.1 mph N/A   Overcast
1:20 PM 75.2 °F - 66.2 °F 73% 30.25 in 10.0 mi South 8.1 mph - N/A   Overcast
1:40 PM 77.0 °F - 66.2 °F 69% 30.24 in 10.0 mi South 9.2 mph - N/A   Overcast
2:00 PM 77.0 °F - 66.2 °F 69% 30.23 in 10.0 mi South 8.1 mph - N/A   Overcast
2:20 PM 78.8 °F - 66.2 °F 65% 30.22 in 10.0 mi SSW 10.4 mph - N/A   Overcast
2:40 PM 78.8 °F - 66.2 °F 65% 30.21 in 10.0 mi SSW 8.1 mph - N/A   Overcast
3:00 PM 77.0 °F - 66.2 °F 69% 30.21 in 10.0 mi South 9.2 mph - N/A   Overcast
3:20 PM 78.8 °F - 66.2 °F 65% 30.20 in 10.0 mi South 8.1 mph - N/A   Overcast
3:40 PM 78.8 °F - 68.0 °F 69% 30.20 in 10.0 mi South 6.9 mph - N/A   Overcast
4:00 PM 77.0 °F - 68.0 °F 74% 30.20 in 10.0 mi South 9.2 mph - N/A   Overcast
4:20 PM 77.0 °F - 68.0 °F 74% 30.19 in 10.0 mi South 8.1 mph - N/A   Overcast
4:40 PM 78.8 °F - 68.0 °F 69% 30.18 in 10.0 mi South 10.4 mph - N/A   Overcast
5:00 PM 80.6 °F 83.2 °F 68.0 °F 65% 30.18 in 10.0 mi South 6.9 mph - N/A   Mostly Cloudy
5:20 PM 78.8 °F - 68.0 °F 69% 30.18 in 10.0 mi South 5.8 mph - N/A   Overcast
6:00 PM 77.0 °F - 69.8 °F 78% 30.19 in 10.0 mi South 6.9 mph - N/A   Mostly Cloudy
6:20 PM 77.0 °F - 68.0 °F 74% 30.19 in 10.0 mi South 6.9 mph - N/A   Overcast
6:40 PM 75.2 °F - 68.0 °F 78% 30.19 in 10.0 mi SSW 5.8 mph - N/A   Overcast
7:00 PM 75.2 °F - 68.0 °F 78% 30.18 in 10.0 mi SSW 5.8 mph - N/A   Overcast
7:20 PM 75.2 °F - 69.8 °F 83% 30.18 in 10.0 mi South 4.6 mph - N/A   Overcast
7:40 PM 75.2 °F - 68.0 °F 78% 30.19 in 10.0 mi South 5.8 mph - N/A   Overcast
8:00 PM 75.2 °F - 68.0 °F 78% 30.19 in 10.0 mi South 4.6 mph - N/A   Overcast
8:20 PM 75.2 °F - 68.0 °F 78% 30.19 in 10.0 mi South 5.8 mph - N/A   Overcast
8:40 PM 75.2 °F - 69.8 °F 83% 30.20 in 10.0 mi South 5.8 mph - N/A Rain Light Rain
9:00 PM 73.4 °F - 69.8 °F 88% 30.20 in 10.0 mi Calm Calm - N/A   Mostly Cloudy
9:20 PM 73.4 °F - 69.8 °F 88% 30.20 in 10.0 mi South 3.5 mph - N/A   Overcast
9:40 PM 73.4 °F - 69.8 °F 88% 30.20 in 10.0 mi South 3.5 mph - 0.01 in   Overcast
10:00 PM 73.4 °F - 69.8 °F 88% 30.20 in 10.0 mi South 3.5 mph - N/A   Overcast
10:20 PM 73.4 °F - 69.8 °F 88% 30.20 in 10.0 mi Calm Calm - N/A   Overcast
11:00 PM 73.4 °F - 69.8 °F 88% 30.20 in 10.0 mi Calm Calm - N/A   Overcast
11:20 PM 73.4 °F - 69.8 °F 88% 30.19 in 10.0 mi Calm Calm - N/A   Mostly Cloudy
11:40 PM 73.4 °F - 69.8 °F 88% 30.18 in 10.0 mi South 4.6 mph - N/A   Mostly Cloudy